Regional Weather Roundup
Issued by NWS

Home | Current Version | Previous Version | Graphics & Text | Print | Product List | Glossary On
Versions: 1 2 3 4 5 6 7 8 9 10 11 12 13 14 15 16 17 18 19 20 21 22 23 24 25 26 27 28 29 30 31 32 33 34 35 36 37 38 39 40 41 42 43 44 45 46 47 48 49 50
000
ASUS43 KBIS 291210
RWRND

NORTH DAKOTA REGIONAL WEATHER ROUNDUP
NATIONAL WEATHER SERVICE BISMARCK ND
700 AM CDT SAT AUG 29 2015

NOTE: "FAIR" INDICATES FEW OR NO CLOUDS BELOW 12,000 FEET WITH NO
SIGNIFICANT WEATHER AND/OR OBSTRUCTIONS TO VISIBILITY.


NDZ001>003-009>011-017-291300-
NORTHWEST NORTH DAKOTA

CITY           SKY/WX    TMP DP  RH WIND       PRES   REMARKS
WILLISTON      MOCLDY    56  51  84 SW3       29.91S HAZE
6HR MIN TEMP:  54; 6HR MAX TEMP:  63;

MINOT          CLOUDY    61  52  72 CALM      29.90R HAZE
MINOT AFB      MOCLDY    55  55 100 W7        29.89R
$$

NDZ018>021-031>035-040>046-291300-
SOUTHWEST NORTH DAKOTA

CITY           SKY/WX    TMP DP  RH WIND       PRES   REMARKS
BISMARCK       CLOUDY    58  57  97 W5        29.95R FOG
6HR MIN TEMP:  57; 6HR MAX TEMP:  66;

DICKINSON      CLOUDY    57  44  62 S6        29.96R HAZE
GARRISON         N/A     55  51  86 CALM      29.93R
6HR MIN TEMP:  54; 6HR MAX TEMP:  64;

HETTINGER ARPT CLOUDY    48  43  82 CALM      30.01S HAZE
$$

NDZ004>008-012>016-024-026-027-054-291300-
NORTHEAST NORTH DAKOTA

CITY           SKY/WX    TMP DP  RH WIND       PRES   REMARKS
GRAND FORKS      N/A     62  61  96 S6        29.90R FOG
GRND FRKS AFB  FOG       59  59 100 S3        29.90S VSB<1/4
DEVILS LAKE      N/A     63  57  82 SE7       29.90R VSB<1/4
$$

NDZ022-023-025-028>030-036>039-047>053-291300-
SOUTHEAST NORTH DAKOTA

CITY           SKY/WX    TMP DP  RH WIND       PRES   REMARKS
FARGO          CLEAR     63  59  87 S9        29.95R
6HR MIN TEMP:  63; 6HR MAX TEMP:  69;

JAMESTOWN      CLEAR     60  59  96 S5        29.93R FOG
$$



USA.gov is the U.S. government's official web portal to all federal, state and local government web resources and services.